Retour au catalogue

OPS 4682 DEB

ActifPO
NORAD 1399·DEBRIS·🇺🇸 United States

Lancé Apr 3, 1965 depuis Vandenberg Space Force Base

Loading…

Prochains Passages (prochaines 24 heures)

TLE

FraisSource: Space-Track

Époque: Sep 14, 2026, 02:06 UTC

1 01399U 65027E   26257.08812842 -.00000537  00000-0 -18117-2 0  9994
2 01399  90.2765  27.2747 0009199  60.4188 299.7850 12.99966820644654

Suivez OPS 4682 DEB en temps réel avec AllMySat

Download on the App Store